x

8454049 - Quonset Point, Ri (qptr1) Weather Station

4:30 - Mon 24th Apr 2017 All times are EDT. -4 hours from GMT.

  • Wind
    7mph, 8mph gusts
  • Sea Temp 50°f
  • Aire Temp 44°f
  • Sea Pressure 1020.9mb
  • 8454049 - Quonset Point, Ri
  • 8454049 - Quonset Point, Ri

More Historic Weather Station data

Upgrade to MSW Pro to gain access to the past 30 days of data for over 8000 Wavebouys and Weather Stations around the globe.

Join Pro

Comparision Forecast

View Surf forecast
   
lun 04/24 4:30 7 8 mph 1020.9mb 50f 44f
4:24 7 9 mph 1020.7mb 50f 44f
4:18 8 10 mph 1020.6mb 50f 45f
4:12 9 10 mph 1020.5mb 49f 45f
4:06 9 10 mph 1020.5mb 49f 45f
4:00 9 11 mph 1020.5mb 49f 45f
3:54 9 10 mph 1020.5mb 50f 45f
3:48 8 9 mph 1020.5mb 50f 45f
3:42 7 8 mph 1020.4mb 49f 45f
3:36 7 9 mph 1020.4mb 49f 45f
3:30 7
mph
1020.4mb 49f 44f
3:24 6 7 mph 1020.3mb 49f 45f
3:18 6 8 mph 1020.3mb 50f 44f
3:12 7 8 mph 1020.4mb 50f 44f
3:06 7 8 mph 1020.3mb 50f 44f
3:00 8 9 mph 1020.3mb 50f 45f
2:54 7 8 mph 1020.2mb 51f 45f
2:48 7 9 mph 1020.2mb 51f 45f
2:42 8 9 mph 1020.3mb 51f 45f
2:36 8 9 mph 1020.3mb 51f 45f
2:30 8 10 mph 1020.4mb 51f 45f
2:24 9 11 mph 1020.5mb 51f 45f
2:18 9 11 mph 1020.5mb 51f 45f
2:12 9 11 mph 1020.5mb 51f 45f
2:06 8 9 mph 1020.5mb 51f 46f
2:00 9 10 mph 1020.5mb 52f 46f
1:48 9 13 mph 1020.7mb 52f 46f
1:42 9 11 mph 1020.8mb 52f -
1:36 10 14 mph 1020.9mb 52f -
1:30 11 14 mph 1020.9mb 52f 46f
1:24 11 13 mph 1020.9mb 52f 46f
1:18 10 13 mph 1020.8mb 52f 46f
1:12 10 11 mph 1020.8mb 52f 46f
1:06 10 11 mph 1020.7mb 52f 46f
1:00 10 11 mph 1020.8mb 52f 46f
12:54 9 10 mph 1020.8mb 52f 46f
12:48 9 10 mph 1020.8mb 52f 46f
12:42 9 10 mph 1020.8mb 52f 46f
12:36 9 11 mph 1020.9mb 52f 47f
12:30 10 13 mph 1020.9mb 52f 46f
12:24 9 11 mph 1021mb 52f 46f
12:18 10 11 mph 1020.9mb 52f 46f
12:12 9 13 mph 1020.8mb 52f 46f
12:06 10 11 mph 1020.8mb 52f 46f
12:00 10 13 mph 1020.8mb 52f -
dom 04/23 11:54 11 13 mph 1020.7mb 52f 46f
11:48 11 13 mph - - -
11:42 10 13 mph 1020.7mb 52f 47f
11:36 10 11 mph 1020.6mb 52f 46f
11:30 9 10 mph 1020.7mb 51f 47f
11:24 8 9 mph 1020.7mb 51f 47f
11:18 8 9 mph 1020.7mb 51f 47f
11:12 8 10 mph 1020.7mb 51f 46f
11:06 7 9 mph 1020.7mb 51f 47f
11:00 8 10 mph 1020.8mb 51f 47f
10:54 8 10 mph 1020.8mb 50f 47f
10:42 9 11 mph 1020.9mb 50f 47f
10:36 9 11 mph 1021mb 50f 47f
10:30 10 11 mph 1020.8mb 50f 47f
10:24 9 11 mph 1020.7mb 50f 47f
10:18 10 11 mph 1020.7mb - -
10:12 9 10 mph 1020.7mb 50f 47f
10:06 8 13 mph 1020.8mb 50f 47f
10:00 9 11 mph 1020.7mb 50f 47f
9:48 10 13 mph - - -
9:42 10 13 mph 1020.9mb 50f 47f
9:36 11 14 mph 1021mb 50f 47f
9:30 11 15 mph 1020.9mb 50f 47f
9:24 13 15 mph 1020.8mb 50f 48f
9:18 11 14 mph - - -
9:12 11 14 mph 1020.6mb 50f 48f
9:06 13 14 mph 1020.5mb 49f 48f
9:00 10 13 mph 1020.5mb 49f 48f
8:48 13 15 mph - - -
8:42 13 16 mph 1020.3mb 49f 48f
8:36 16 18 mph 1020.3mb 49f 48f
8:30 15 20 mph 1020.2mb 49f 48f
8:24 14 15 mph 1020mb 49f 48f
8:18 14 17 mph - - -
8:12 14 16 mph 1019.9mb 50f 49f
8:06 14 16 mph 1019.9mb 50f 49f
8:00 14 16 mph 1019.7mb 50f 49f
7:48 14 16 mph 1019.5mb - -
7:42 13 16 mph 1019.5mb 50f 49f
7:36 14 17 mph 1019.5mb 50f 49f
7:30 15 18 mph 1019.4mb 50f 50f
7:24 14 16 mph 1019.4mb 50f 50f
7:18 14 17 mph - - -
7:12 14 17 mph 1019.5mb 50f 50f
7:06 15 18 mph 1019.5mb 50f 50f
7:00 15 18 mph 1019.5mb 51f 50f
6:54 15 17 mph 1019.4mb 51f 50f
6:48 16 18 mph 1019.4mb - -
6:42 15 17 mph 1019.4mb 51f 51f
6:36 15 17 mph 1019.4mb 51f 51f
6:30 15 17 mph 1019.4mb 51f -
6:24 16 18 mph 1019.4mb 51f 50f
6:18 17 20 mph - - -
6:12 17 21 mph 1019.1mb 51f 49f
6:06 17 21 mph 1019.1mb 51f 49f
5:48 20 22 mph 1018.9mb - -
5:42 20 24 mph 1018.9mb 51f 49f
5:36 20 22 mph 1018.9mb 51f 49f
5:30 20 22 mph 1019mb 51f 49f
5:24 21 24 mph 1018.9mb 51f 49f
5:18 22 24 mph 1018.8mb 51f 49f
5:00 21 24 mph 1018.5mb 51f 49f
4:54 22 25 mph 1018.6mb 51f 49f
4:48 22 24 mph 1018.6mb 51f 49f
4:42 21 24 mph 1018.6mb 51f 49f
4:36 21 23 mph 1018.6mb 51f 49f
4:30 22 24 mph 1018.6mb 51f 49f
4:24 23 25 mph 1018.6mb 51f 49f
4:06 21 24 mph 1018.6mb 51f 50f
3:42 21 23 mph 1018.6mb 51f 50f
3:36 21 23 mph 1018.5mb 51f 50f
3:18 21 22 mph 1018.6mb 51f 50f
3:12 22 23 mph 1018.7mb 51f 50f
2:54 20 22 mph 1018.8mb 51f 50f
2:48 18 22 mph 1018.8mb 51f 50f
2:42 18 22 mph 1018.9mb 51f 50f
2:30 20 21 mph 1018.9mb 51f 50f
2:24 20 22 mph 1019mb 51f 50f
2:18 21 22 mph 1019mb 51f 50f
2:12 20 22 mph 1019.1mb 52f 50f
1:54 15 22 mph 1019.2mb 51f 51f
1:42 6
mph
1019.1mb 51f 54f
1:30 5 6 mph 1019.1mb 51f 54f
1:24 5 8 mph 1019.1mb 51f 54f
1:18 6 7 mph 1019mb 51f 54f
1:06 6 7 mph 1019.1mb 51f 53f
12:54 7 8 mph 1019.1mb 51f 53f
12:48 6 8 mph 1019.2mb 50f 53f
12:42 7
mph
1019.2mb 50f 53f
12:36 7 8 mph 1019.2mb 50f 52f
12:30 7
mph
1019.3mb 50f 52f
12:24 7
mph
1019.3mb 50f 52f
12:18 6 7 mph 1019.4mb 50f 52f
12:12 6
mph
1019.4mb 50f 52f
12:06 6 7 mph 1019.5mb 50f 52f
12:00 6 7 mph 1019.5mb 50f 52f
11:54 6 7 mph 1019.5mb 50f 51f
11:48 6 7 mph 1019.6mb 50f 51f
11:42 6 7 mph 1019.6mb 50f 51f
11:36 6 8 mph 1019.5mb 50f 51f
11:30 7
mph
1019.5mb 50f 51f
11:24 6 8 mph 1019.6mb 50f 51f
11:12 8 9 mph 1019.5mb 50f 51f
10:54 8 9 mph 1019.5mb 50f 50f
10:48 8 9 mph 1019.5mb 50f 50f
10:42 8 9 mph 1019.5mb 50f 50f
10:36 8 9 mph 1019.5mb 49f 50f
10:30 8
mph
1019.5mb 49f 50f
10:24 8 10 mph 1019.5mb 49f 50f
10:18 10 11 mph 1019.5mb 49f 50f
10:12 9 11 mph 1019.4mb 49f 50f
10:06 11 13 mph 1019.4mb 49f 50f
10:00 10 14 mph 1019.4mb 49f 50f
9:54 13 15 mph 1019.3mb 49f 50f
9:48 14 16 mph - - -
9:42 13 15 mph 1019mb 49f 50f
9:36 11 15 mph 1019mb 49f 50f
9:30 14 17 mph 1019mb 49f 49f
9:24 14 16 mph 1018.9mb 49f 49f
9:18 13 17 mph 1019mb 49f 49f
9:12 14 16 mph 1019mb 49f 49f
9:06 10 14 mph 1019mb 49f 49f
9:00 11 15 mph 1019mb 48f 49f
8:54 13 15 mph 1018.9mb 48f 49f
8:48 13 20 mph 1019mb 48f 49f
8:42 14 17 mph 1018.9mb 49f 49f
8:36 15 17 mph 1018.8mb 49f 48f
8:30 14 17 mph 1018.9mb 49f 48f
8:24 14 16 mph 1018.9mb 49f 48f
8:18 11 18 mph 1018.9mb 49f 48f
8:12 13 15 mph 1018.9mb 49f 48f
8:06 10 17 mph 1018.7mb 49f 47f
8:00 9 14 mph 1018.7mb 49f 47f
7:54 10 14 mph 1018.6mb 49f 47f
7:48 9 13 mph - - -
7:42 6 9 mph 1018.6mb 49f 46f
7:36 8 10 mph 1018.6mb 49f 45f
7:30 7 9 mph 1018.5mb 50f 45f
7:24 7 10 mph 1018.4mb 50f 44f
7:18 7 10 mph 1018.4mb 50f 44f
7:12 6 9 mph 1018.2mb 50f 44f
7:00 6 8 mph 1018.2mb 50f 44f
6:54 6 9 mph 1017.9mb 50f 44f
6:48 6 9 mph 1017.9mb 50f 44f
6:42 7 10 mph 1017.8mb 50f 44f
6:36 6 9 mph 1017.7mb 50f 44f
6:30 7 8 mph 1017.5mb 50f 44f
6:24 6 8 mph 1017.4mb 50f 44f
6:18 6 7 mph 1017.3mb 50f 44f
6:06 6 8 mph 1017.3mb 50f 44f
6:00 7 10 mph 1017.2mb 50f 44f
5:54 7 9 mph 1017.2mb 50f 44f
5:48 6 10 mph 1017.1mb 50f 44f
5:42 6 9 mph 1016.9mb 50f 44f
5:36 6 8 mph 1017.1mb 50f 44f
5:30 6 8 mph 1017mb 50f 44f
5:24 6 8 mph 1016.9mb 50f 44f
5:18 5 7 mph 1016.6mb 50f 44f
5:12 5 8 mph 1016.6mb 50f 44f
5:06 6 8 mph 1016.5mb 50f 44f
5:00 7 8 mph 1016.4mb 50f 45f
4:54 6 7 mph 1016.6mb 50f 44f
4:48 6 7 mph - - -
4:42 5 6 mph 1016.6mb 50f 44f
4:36 6 8 mph 1016.5mb 50f 45f
4:30 5 6 mph 1016.5mb 50f 44f
4:24 5 6 mph 1016.6mb 50f 44f
4:18 5 6 mph 1016.5mb 50f 44f
4:12 3 6 mph 1016.4mb 50f 44f
4:06 5 6 mph 1016.3mb 50f 44f
4:00 3
mph
1016.4mb 50f 44f
3:54 2 5 mph 1016.2mb 50f 44f
3:48 3 5 mph 1016.3mb 50f 44f
3:42 3 6 mph 1016.3mb 50f 44f
3:36 5 6 mph 1016.4mb 50f 44f
3:30 3 5 mph 1016.4mb 50f 44f
3:24 3
mph
1016.1mb 50f 44f
3:18 1 2 mph 1016mb 50f 44f
3:12 2 5 mph 1015.9mb 50f 44f
3:06 3 5 mph 1016mb 50f 44f
3:00 3 5 mph 1016.1mb 50f 44f
2:54 3 5 mph 1016.1mb 50f 44f
2:48 3
mph
- - -
2:42 3 5 mph 1016mb 50f 44f
2:36 3 5 mph 1016.2mb 50f 44f
2:30 3 5 mph 1016.2mb 51f 44f
2:24 2 3 mph 1016mb 51f 44f
2:18 3
mph
1015.9mb 51f 44f
2:12 3
mph
1016mb 51f 44f
2:06 2 3 mph 1015.9mb 51f 44f
2:00 2 5 mph 1016mb 51f 44f
1:54 3 5 mph 1016.1mb 51f 44f
1:48 3 5 mph 1016.1mb 51f 44f
1:42 3 5 mph 1016.3mb 51f 44f
1:36 2 5 mph 1016.1mb 51f 44f
1:30 3 5 mph 1016.2mb 51f 44f
1:24 3 6 mph 1016.2mb 51f 44f
1:18 5 7 mph 1016.2mb 51f 45f
1:12 5 7 mph 1016.2mb 51f 45f
1:06 5 7 mph 1016.2mb 51f 45f
1:00 5 7 mph 1016mb 51f 45f
12:54 6 7 mph 1015.9mb 51f 45f
12:48 6 7 mph 1015.8mb 51f 45f
12:42 6
mph
1015.7mb 51f 45f
12:36 5 6 mph 1015.6mb 51f 45f
12:30 5 6 mph 1015.6mb 51f 45f
12:24 5 6 mph 1015.6mb 51f 45f
12:18 2 6 mph 1015.7mb 51f 46f
12:12 6 7 mph 1015.6mb 51f 46f
12:06 6 7 mph 1015.4mb 51f 46f
12:00 6 7 mph 1015.3mb 51f 46f
sáb 04/22 11:54 6 7 mph 1015.2mb 51f 46f
11:48 6 7 mph - - -
11:42 5 6 mph 1015.2mb 51f 46f
11:36 5 7 mph 1015.2mb 51f 46f
11:30 6 9 mph 1015.2mb 51f 46f
11:24 8 10 mph 1015.1mb 51f 46f
11:18 9 10 mph 1015.1mb 51f 46f
11:12 8 10 mph 1015.3mb 51f 46f
11:06 10 11 mph 1015.2mb 51f 46f
11:00 9 13 mph 1015.1mb 51f 46f
10:54 10 13 mph 1014.9mb 51f 46f
10:48 10 14 mph 1015mb 51f 46f
10:42 10 14 mph 1015mb 51f 46f
10:36 11 14 mph 1015.1mb 51f 46f
10:30 11 14 mph 1014.8mb 51f 46f
10:24 10 14 mph 1014.8mb 51f 47f
10:18 11 15 mph - - -
10:12 11 14 mph 1014.9mb 51f 46f
10:06 10 13 mph 1014.8mb 51f 47f
10:00 9 13 mph 1015mb 51f 47f
9:48 9 11 mph - - -
9:42 8 10 mph 1015mb 50f 47f
9:36 9 11 mph 1014.9mb 50f 47f
9:30 9 11 mph 1015mb 50f 47f
9:24 10 11 mph 1015mb 50f 47f
9:18 9 10 mph 1014.9mb - -
9:12 9 11 mph 1015mb 50f 47f
9:06 10 11 mph 1015mb 50f 47f
9:00 10 14 mph 1015mb 50f 47f
8:48 9 13 mph - - -
8:42 9 11 mph 1014.8mb 50f 47f
8:36 10 11 mph 1014.6mb 50f 47f
8:30 10 11 mph 1014.6mb 50f 47f
8:24 10 11 mph 1014.5mb 50f 47f
8:18 9 13 mph 1014.6mb - -
8:12 9 13 mph 1014.5mb 50f 47f
8:06 10 13 mph 1014.5mb 50f 47f
8:00 9 11 mph 1014.3mb 50f 47f
7:48 10 14 mph - - -
7:42 9 13 mph 1014mb 50f 47f
7:36 10 13 mph 1013.9mb 50f 47f
7:30 11 13 mph 1013.9mb 50f 47f
7:24 9 11 mph 1013.9mb 50f 47f
7:12 10 13 mph 1014mb 50f 47f
7:06 9 14 mph 1014mb 50f 47f
7:00 13 16 mph 1013.9mb 50f 47f
6:48 13 15 mph - - -
6:42 11 14 mph 1013.5mb 51f 47f
6:36 11 15 mph 1013.6mb 51f 47f
6:30 13 15 mph 1013.7mb 51f 47f
6:24 11 15 mph 1013.7mb 51f 47f
6:18 11 14 mph - - -
6:12 11 15 mph 1013.8mb 51f 47f
6:06 11 15 mph 1013.6mb 51f 47f
6:00 13 16 mph 1013.8mb 51f 47f
5:48 14 16 mph 1013.6mb - -
5:42 14 17 mph 1013.4mb 51f 47f
5:36 14 17 mph 1013.3mb 51f 47f
5:30 11 15 mph 1013.3mb 51f 47f
5:24 14 15 mph 1013.4mb 51f 47f
5:18 13 16 mph - - -
5:12 11 16 mph 1013.4mb 51f 47f
5:06 10 14 mph 1013.5mb 51f 47f
5:00 9 13 mph 1013.6mb 51f 47f
4:54 10 15 mph 1013.5mb 51f 47f
4:48 11 15 mph 1013.3mb 51f 47f
4:42 9 15 mph 1013.3mb 51f 47f
4:36 11 15 mph 1013.1mb 51f 47f
4:30 11 16 mph 1013.2mb 51f 47f
4:24 13 16 mph 1013mb 51f 47f
4:18 13 15 mph 1013mb 51f 47f
4:12 9 14 mph 1013.2mb 51f 48f
4:06 11 15 mph 1013.1mb 51f 48f
4:00 11 15 mph 1013.1mb 51f 47f
3:54 11 18 mph 1013mb 51f 47f
3:48 13 15 mph 1012.9mb 51f 47f
3:42 13 15 mph 1012.8mb 51f 47f
3:36 11 15 mph 1012.6mb 51f 47f
3:30 11 15 mph 1012.7mb 51f 47f
3:24 14 17 mph 1012.7mb 51f 47f
3:18 14 17 mph 1012.4mb 51f 47f
3:12 13 16 mph 1012.4mb 51f 47f
3:06 13 17 mph 1012.3mb 51f 47f
3:00 13 17 mph 1012.5mb 51f 47f
2:54 14 17 mph 1012.4mb 51f 47f
2:48 15 17 mph 1012.3mb 51f 47f
2:42 14 16 mph 1012.6mb 51f 47f
2:36 15 17 mph 1012.6mb 51f 46f
2:30 14 16 mph 1012.7mb 51f 46f
2:24 13 17 mph 1012.7mb 51f 46f
2:18 14 18 mph 1012.9mb 51f 47f
2:12 14 18 mph 1012.8mb 51f 46f
2:06 17 18 mph 1013mb 51f 46f
2:00 14 18 mph 1013mb 51f 47f
1:54 16 20 mph 1012.9mb 51f 46f
1:48 14 17 mph - - -
1:42 13 17 mph 1013.2mb 51f 46f
1:36 14 18 mph 1013.4mb 51f 47f
1:30 15 17 mph 1013.2mb 51f 47f
1:24 16 20 mph 1013.2mb 51f 46f
1:18 14 17 mph 1013.5mb 51f 46f
1:12 13 16 mph 1013.4mb 51f 46f
1:06 14 16 mph 1013.7mb 51f 46f
1:00 13 15 mph 1013.8mb 51f 46f
12:54 13 14 mph 1013.8mb 51f 46f
12:48 11 14 mph - - -
12:42 10 16 mph 1013.7mb 51f 46f
12:36 11 15 mph 1013.8mb 51f 46f
12:18 10 14 mph 1013.7mb 51f 46f
12:12 10 13 mph 1013.6mb 51f 46f
12:06 9 11 mph 1013.8mb 51f 46f
12:00 9 14 mph 1013.9mb 51f 46f
11:54 13 15 mph 1013.8mb 51f 46f
11:48 10 16 mph 1013.9mb 51f 46f
11:42 13 16 mph 1013.9mb 51f 46f
11:36 14 18 mph 1013.7mb 51f 47f
11:30 13 17 mph 1013.7mb 51f 47f
11:24 15 18 mph 1013.7mb 51f 47f
11:18 15 17 mph 1013.7mb 51f 47f
11:12 17 20 mph 1013.9mb 51f 47f
11:00 18 22 mph 1013.8mb 51f 47f
10:54 17 21 mph 1013.7mb 51f 47f
10:48 17 21 mph - - -
10:42 17 23 mph 1013.9mb 51f 46f
10:36 16 20 mph 1013.9mb 51f 46f
10:30 17 23 mph 1013.6mb 51f 46f
10:24 18 22 mph 1013.3mb 51f 46f
10:18 16 22 mph - - -
10:12 16 20 mph 1013.3mb 51f 46f
10:06 16 20 mph 1013.4mb 51f 46f
10:00 16 23 mph 1013.4mb 51f 46f
9:54 17 22 mph 1013.2mb 51f 46f
9:48 17 22 mph 1013.2mb 51f 46f
9:42 18 22 mph 1013.3mb 51f 46f
9:36 18 21 mph 1013.3mb 51f 46f
9:30 17 22 mph 1013.3mb 51f 46f
9:24 17 22 mph 1013.1mb 51f 46f
9:18 15 21 mph 1013.2mb 51f 46f
9:12 17 21 mph 1013.4mb 51f 46f
9:06 20 22 mph 1013.4mb 51f 46f
9:00 17 21 mph 1013.5mb 51f 46f
8:54 18 22 mph 1013.3mb 51f 45f
8:48 16 21 mph - - -
8:42 17 22 mph 1013.3mb 51f 46f
8:36 15 18 mph 1013.4mb 51f 46f
8:30 14 17 mph 1013.5mb 51f 45f
8:24 14 20 mph 1013.7mb 50f 45f
8:18 15 21 mph 1013.6mb 50f 45f
8:12 16 20 mph 1013.6mb 50f 45f
8:06 16 20 mph 1013.8mb 50f 45f
8:00 17 21 mph 1013.5mb 50f 45f
7:54 17 22 mph 1013.2mb 50f 45f
7:48 14 18 mph 1013.3mb 50f 45f
7:42 16 21 mph 1013.2mb 50f 45f
7:36 16 18 mph 1013.3mb 50f 45f
7:30 16 18 mph 1013.4mb 50f 45f
7:24 14 20 mph 1013.3mb 50f 45f
7:18 18 25 mph 1013.5mb 50f 45f
7:12 17 23 mph 1013.4mb 50f 45f
7:06 17 22 mph 1013.2mb 50f 45f
7:00 20 23 mph 1013.2mb 50f 45f
6:54 20 22 mph 1013.1mb 50f 46f
6:48 18 21 mph 1013.3mb 50f 46f
6:42 17 20 mph 1013.5mb 50f 45f
6:36 16 20 mph 1013.5mb 50f 45f
6:30 16 21 mph 1013.3mb 50f 45f
6:24 17 21 mph 1013.4mb 50f 45f
6:18 17 22 mph 1013.5mb 50f 45f
6:12 16 20 mph 1013.2mb 50f 45f
6:06 16 20 mph 1013.1mb 50f 46f
6:00 16 21 mph 1013.2mb 50f 46f
5:54 17 22 mph 1013mb 50f 45f
5:48 17 23 mph 1012.8mb 50f 46f
5:42 18 23 mph 1013mb 50f 45f
5:36 17 21 mph 1012.8mb 51f 45f
5:30 20 22 mph 1012.7mb 51f -
5:24 17 21 mph 1012.9mb 51f 45f
5:18 16 20 mph 1013.2mb 51f 45f
5:12 16 21 mph 1013.2mb 51f 45f
5:06 16 21 mph 1013.1mb 51f 46f
5:00 16 20 mph 1013.1mb 51f 46f
4:54 17 21 mph 1013mb 51f 46f
4:48 18 22 mph 1013.1mb 51f 45f
4:42 18 20 mph 1012.9mb 51f 46f
4:36 17 20 mph 1013mb 51f 46f
4:30 16 22 mph 1013.2mb 51f 46f
4:24 16 20 mph 1013.3mb 51f 46f
4:18 16 21 mph 1013.3mb 51f 46f
4:12 16 18 mph 1013.1mb 51f 46f
4:06 15 17 mph 1013.1mb 51f 46f
4:00 15 20 mph 1013.2mb 51f 46f
3:54 16 20 mph 1013.3mb 51f 46f
3:48 16 20 mph 1013.5mb 51f 46f
3:42 15 18 mph 1013.6mb 51f 46f
3:36 13 18 mph 1013.7mb 51f 47f
3:30 15 17 mph 1013.7mb 51f 46f
3:24 14 18 mph 1013.7mb 51f 46f
3:18 16 18 mph 1013.7mb 51f 47f
3:12 15 17 mph 1013mb 51f 46f
3:06 14 17 mph 1012.9mb 51f 46f
3:00 15 18 mph 1013.1mb 51f 47f
2:54 15 18 mph 1013.1mb 51f 46f
2:48 15 17 mph 1013.3mb 51f 47f
2:42 15 17 mph 1013.4mb 51f 47f
2:36 15 16 mph 1013.5mb 51f 47f
2:30 13 16 mph 1013.5mb 51f 47f
2:24 15 16 mph 1013.5mb 51f 47f
2:18 14 17 mph 1013.5mb 51f 47f
2:12 14 16 mph 1013.3mb 51f 47f
2:06 13 15 mph 1013.5mb 51f 47f
2:00 13 15 mph 1013.5mb 51f 47f
1:54 13 14 mph 1013.5mb 51f 48f
1:48 11 14 mph 1013.5mb 51f 48f
1:42 13 15 mph 1013.5mb 51f 48f
1:36 14 15 mph 1013.6mb 51f 48f
1:30 10 13 mph 1013.8mb 51f 48f
1:24 11 14 mph 1013.9mb 51f 48f
1:18 13 14 mph 1013.8mb 51f 47f
1:12 11 14 mph 1013.9mb 51f 48f
1:06 11 14 mph 1014mb 51f 47f
1:00 10 13 mph 1014.1mb 51f 48f
12:54 11 14 mph 1014.2mb 51f 48f
12:48 11 13 mph 1014.2mb 51f 47f
12:42 11 13 mph 1014.2mb 51f 47f
12:36 10 13 mph 1014.5mb 51f 48f
12:30 10 11 mph 1014.5mb 51f 48f
12:24 9 10 mph 1014.6mb 51f 48f
12:18 8 10 mph 1014.5mb 51f 48f
12:12 7 9 mph 1014.6mb 51f 48f
12:06 8 10 mph 1014.5mb 51f 48f
12:00 10 11 mph 1014.4mb 51f 48f
vie 04/21 11:54 10 13 mph 1014.4mb 51f 48f
11:48 10 11 mph 1014.2mb 51f 48f
11:42 10 13 mph 1014.3mb 51f 48f
11:36 10 11 mph 1014.4mb 51f 48f
11:30 10 11 mph 1014.6mb 51f 48f
11:24 9 11 mph 1014.6mb 51f 48f
11:18 9 10 mph 1014.7mb 51f 48f
11:12 9 10 mph 1014.7mb 51f 48f
11:06 9 11 mph 1014.7mb 51f 48f
11:00 9 10 mph 1014.7mb 51f 48f
10:54 9 10 mph 1014.7mb 51f 48f
10:48 9 10 mph - - -
10:42 8 10 mph 1014.8mb 51f 48f
10:36 9 10 mph 1015mb 51f 48f
10:30 8 9 mph 1015.1mb 51f 48f
10:24 8 10 mph 1015.1mb 51f 48f
10:18 9 11 mph - - -
10:12 10 11 mph 1015.1mb 51f 48f
10:06 9 10 mph 1015.3mb 51f 48f
10:00 9 10 mph 1015.4mb 51f 48f
9:48 7 8 mph 1015.2mb - -
9:42 6
mph
1015.3mb 51f 48f
9:36 7 8 mph 1015.2mb 51f 48f
9:30 7 8 mph 1015.2mb 51f 48f
9:24 7 8 mph 1015.4mb 51f 48f
9:18 8 9 mph - - -
9:12 9 10 mph 1015.3mb 51f 48f
9:06 7 8 mph 1015.5mb 51f 48f
9:00 7 8 mph 1015.4mb 51f 48f
8:48 8 10 mph - - -
8:42 7 9 mph 1015.4mb 51f 48f
8:36 9
mph
1015.2mb 51f 48f
8:30 7 8 mph 1015.1mb 51f 48f
8:24 7 8 mph 1015.2mb 51f 48f
8:18 7 8 mph - - -
8:12 6 7 mph 1015.2mb 51f 48f
8:06 5 7 mph 1015.1mb 51f 48f
8:00 6 7 mph 1015mb 51f 48f
7:48 6 8 mph 1014.9mb - -
7:42 6 8 mph 1014.7mb 51f 48f
7:36 7 9 mph 1014.5mb 51f 48f
7:30 7 9 mph 1014.3mb 51f 47f
7:24 8 9 mph 1014.4mb 51f 48f
7:12 5 8 mph 1014.4mb 51f 47f
7:06 6 9 mph 1014.3mb 51f 48f
7:00 8 10 mph 1014.1mb 50f 48f
6:48 10 11 mph 1014.1mb - -
6:42 10 14 mph 1014.3mb 50f 48f
6:36 11 13 mph 1014.4mb 50f 48f
6:30 11 14 mph 1014.7mb 50f 48f
6:24 9 10 mph 1014.9mb 50f 48f
6:18 7 10 mph - - -
6:12 7 10 mph 1015.3mb 50f 48f
6:06 9 10 mph 1015.3mb 50f 48f
5:48 7 10 mph 1015.2mb - -
5:42 6 8 mph 1015.1mb 50f 48f
5:36 6 9 mph 1015.3mb 51f 48f
5:30 6 9 mph 1015.2mb 51f 48f
5:24 6 9 mph 1014.9mb 51f 48f
5:18 7 10 mph 1014.8mb 51f 48f
5:12 7 8 mph 1014.8mb 51f 48f
5:06 6 9 mph 1014.8mb 51f 48f
5:00 6 7 mph 1014.9mb 51f 48f
4:54 7 8 mph 1015mb 51f 48f
4:48 6 10 mph - - -
4:42 7 9 mph 1015mb 51f 48f
4:36 7 8 mph 1015.1mb 51f 48f
4:30 6 9 mph 1015.2mb 51f 48f
4:24 6 8 mph 1015mb 51f 48f
4:12 6 9 mph 1015mb 51f 48f
4:06 8 9 mph 1015mb 51f 48f
4:00 7 9 mph 1015.1mb 51f 48f
3:54 9 11 mph 1014.9mb 51f 48f
3:48 7 13 mph 1014.8mb 51f 48f
3:42 7 11 mph 1015mb 51f 48f
3:36 8 11 mph 1015.2mb 51f 48f
3:30 8 9 mph 1015.3mb 51f 48f
3:24 7 10 mph 1015.4mb 51f 48f
3:18 7 13 mph 1015.4mb 51f 48f
3:12 10 13 mph 1015.4mb 51f 48f
3:06 7 13 mph 1015.3mb 51f 48f
3:00 10 14 mph 1015.3mb 51f 48f
2:54 9 11 mph 1015.3mb 51f 48f
2:48 9 14 mph 1015.5mb 51f 48f
2:42 7 14 mph 1015.5mb 51f 48f
2:36 9 15 mph 1015.6mb 51f 48f
2:30 8 13 mph 1015.7mb 51f 48f
2:24 6 9 mph 1016.1mb 51f 47f
2:18 8 9 mph 1015.8mb 51f 47f
2:12 7 10 mph 1016.1mb 51f 48f
2:06 7 9 mph 1016.1mb 51f 47f
1:54 7 10 mph 1016.4mb 51f 47f
1:48 9 11 mph 1016.4mb 51f 47f
1:42 8 10 mph 1016.5mb 51f 47f
1:36 9 13 mph 1016.5mb 51f 47f
1:24 13 14 mph 1016.4mb 51f 47f
1:18 11 15 mph 1016.3mb 51f 47f
1:12 13 14 mph 1016.4mb 51f 47f
1:06 9 14 mph 1016.7mb 51f 47f
1:00 13 14 mph 1016.6mb 51f 46f
12:54 10 13 mph 1016.9mb 51f 47f
12:48 11 13 mph - - -
12:42 9 11 mph 1016.9mb 51f 47f
12:36 8 11 mph 1016.9mb 51f 46f
12:30 9 13 mph 1016.9mb 51f 46f
12:24 11 15 mph 1016.7mb 51f 46f
12:18 11 14 mph 1016.6mb 51f 47f
12:12 13 15 mph 1016.6mb 51f 47f
12:06 11 14 mph 1016.6mb 51f 46f
12:00 13 16 mph 1016.7mb 51f 46f
11:54 14 17 mph 1016.8mb 51f 47f
11:48 14 15 mph 1016.9mb 51f 47f
11:42 11 14 mph 1017.2mb 51f 47f
11:36 11 14 mph 1017.2mb 51f 47f
11:30 13 17 mph 1017.3mb 51f 47f
11:24 11 14 mph 1017.3mb 51f 47f
11:18 13 16 mph 1017.3mb 51f 47f
11:12 14 16 mph 1017.3mb 51f 47f
11:06 11 15 mph 1017.3mb 51f 47f
11:00 14 16 mph 1017.4mb 51f 47f
10:54 16 18 mph 1017.3mb 51f 47f
10:48 15 17 mph 1017.4mb 51f 47f
10:42 15 18 mph 1017.4mb 51f 47f
10:36 14 16 mph 1017.5mb 51f 48f
10:30 11 14 mph 1017.7mb 51f 48f
10:24 13 15 mph 1017.8mb 51f 48f
10:18 13 14 mph 1017.9mb 51f 47f
10:12 10 14 mph 1018mb 51f 47f
10:06 10 13 mph 1018mb 51f 47f
10:00 10 13 mph 1018.2mb 51f 48f
9:30 10 13 mph 1017.9mb 51f 47f
9:24 11 15 mph 1017.5mb 51f 47f
9:18 13 15 mph 1017.4mb 51f 47f
9:12 11 15 mph 1017.4mb 51f 47f
9:06 13 14 mph 1017.4mb 51f 47f
9:00 13 15 mph 1017.6mb 51f 47f
8:54 13 15 mph 1017.6mb 51f 48f
8:48 11 14 mph 1017.6mb 51f 48f
8:42 11 15 mph 1017.7mb 51f 48f
8:36 10 13 mph 1017.9mb 51f 48f
8:30 11 15 mph 1018mb 51f 48f
8:24 11 14 mph 1018mb 51f 48f
8:18 14 15 mph 1018mb 51f 48f
8:12 14 15 mph 1018mb 51f 48f
8:06 11 14 mph 1018mb 51f 48f
8:00 13 15 mph 1017.6mb 51f 48f
7:54 11 14 mph 1018.9mb 51f 48f
7:48 10 15 mph 1018.7mb 51f 48f
7:42 13 14 mph 1017.8mb 51f 48f
7:36 11 16 mph 1017.8mb 51f 48f
7:30 13 14 mph 1017.8mb 51f 48f
7:24 11 14 mph 1017.9mb 51f 48f
7:18 13 14 mph 1017.8mb 51f 48f
7:12 11 14 mph 1017.8mb 51f 48f
7:06 10 11 mph 1017.9mb 51f 48f
7:00 11 15 mph 1018mb 51f 48f
6:54 11 14 mph 1017.9mb 51f 49f
6:48 11 13 mph 1017.9mb 51f 49f
6:42 10 13 mph 1017.8mb 51f 49f
6:36 11 14 mph 1017.8mb 51f 49f
6:30 11 14 mph 1017.6mb 51f 48f
6:24 10 11 mph 1017.6mb 51f 49f
6:18 10 14 mph 1017.6mb 51f 48f
6:12 13 15 mph 1017.6mb 51f 48f
6:06 13 14 mph 1017.5mb 51f 48f
6:00 11 15 mph 1017.3mb 51f 49f
5:54 14 16 mph 1017.1mb 51f 48f
5:48 10 14 mph 1017.3mb 51f 48f
5:42 13 15 mph 1017.2mb 51f 48f
5:36 11 14 mph 1017.3mb 51f 48f
5:30 9 11 mph 1017.5mb 51f 48f
5:24 10 11 mph 1017.5mb 51f 48f
5:18 7 10 mph - - -
5:12 9 11 mph 1017.6mb 51f 48f
5:06 8 11 mph 1017.4mb 51f 48f
5:00 10
mph
1017.4mb 51f 48f
4:54 9 10 mph 1017.4mb 51f 48f
4:48 7 9 mph 1017.6mb 51f 48f
4:42 7 9 mph 1017.5mb 51f 48f
4:36 7 10 mph 1017.4mb 51f 48f
4:30 9 11 mph 1017.3mb 51f 48f
4:24 9 13 mph 1017.2mb 51f 47f
4:18 10 11 mph 1017.2mb 51f 47f
4:12 10 11 mph 1017.4mb 51f 47f
4:06 11 13 mph 1017.5mb 51f 47f
4:00 10 11 mph 1017.5mb 51f 47f
3:54 10 11 mph 1017.7mb 51f 47f
3:48 10 13 mph 1017.8mb 51f 47f
3:42 11 15 mph 1017.7mb 51f 47f
3:36 13 15 mph 1017.6mb 51f 47f
3:30 11 14 mph 1017.7mb 51f 47f
3:24 13 14 mph 1017.7mb 51f 47f
3:18 13 16 mph 1017.9mb 51f 47f
3:12 14 17 mph 1017.6mb 51f 47f
3:06 15 17 mph 1017.9mb 51f 47f
3:00 15 17 mph 1018.1mb 51f 47f
2:54 14 15 mph 1018.4mb 51f 47f
2:48 14 17 mph 1018.6mb 51f 47f
2:42 14 16 mph 1018.7mb 51f 47f
2:36 13 16 mph 1018.8mb 51f 47f
2:30 15 17 mph 1018.7mb 51f 47f
2:24 14 17 mph 1019mb 51f 47f
2:18 15 18 mph 1018.8mb 51f 47f
2:12 16 18 mph 1018.8mb 51f 47f
2:06 17 20 mph 1018.9mb 51f 47f
2:00 15 17 mph 1019.3mb 51f 47f
1:54 15 18 mph 1019.3mb 51f 47f
1:48 15 16 mph 1019.3mb 51f 48f
1:42 15 17 mph - - -
1:36 15 17 mph - - -
1:30 16 20 mph 1019.9mb 51f 48f
1:24 17 20 mph 1019.3mb 51f 48f
1:18 17 18 mph 1019.4mb 51f 48f
1:12 14 16 mph 1019.8mb 51f 48f
1:06 15 17 mph 1019.9mb 51f 48f
1:00 15 18 mph 1019.9mb 51f 48f
12:54 16 18 mph 1020mb 51f 48f
12:48 16 18 mph - - -
12:42 15 18 mph 1020mb 51f 48f
12:36 15 16 mph 1020mb 51f 49f
12:30 14 16 mph 1020.1mb 52f 48f
12:24 15 17 mph 1019.9mb 52f 48f
12:18 15 18 mph - - -
12:12 15 18 mph 1019.7mb 52f 49f
12:06 14 17 mph 1019.6mb 52f 48f
12:00 15 17 mph 1019.6mb 52f 48f
jue 04/20 11:54 14 16 mph 1019.7mb 52f 48f
11:48 13 15 mph - - -
11:42 13 14 mph 1019.7mb 52f 48f
11:36 13 15 mph 1019.9mb 52f 48f
11:30 14 16 mph 1019.4mb 51f 48f
11:24 15 16 mph 1019.3mb 51f 48f
11:18 14 16 mph 1019.3mb 51f 48f
11:12 14 16 mph 1019.4mb 51f 48f
11:06 13 15 mph 1019.7mb 51f 48f
11:00 11 14 mph 1019.8mb 51f 48f
10:54 11 14 mph 1019.7mb 51f 48f
10:48 14 16 mph 1019.6mb 51f 48f
10:42 15 18 mph 1019.5mb 51f 48f
10:36 14 18 mph 1019.7mb 51f 48f
10:30 16 18 mph 1019.6mb 51f 48f
10:24 15 18 mph 1019.8mb 51f 48f
10:18 15 18 mph - - -
10:12 17 21 mph 1019.8mb 51f 49f
10:06 17 21 mph 1019.7mb 51f 49f
10:00 20 22 mph 1019.6mb 51f 49f
9:54 18 22 mph 1019.3mb 51f 49f
9:48 21 22 mph 1019.3mb - -
9:42 17 20 mph 1019.3mb 51f 49f
9:36 16 17 mph 1019.6mb 51f 49f
9:30 15 18 mph 1019.9mb 51f 49f
9:24 16 17 mph 1020mb 51f 49f
9:18 14 17 mph 1020.1mb - -
9:12 16 20 mph 1020.2mb 51f 49f
9:06 15 18 mph 1020.2mb 51f 49f
9:00 17 20 mph 1020.1mb 51f 49f
8:54 16 18 mph 1020mb 51f 49f
8:48 14 18 mph 1020mb 51f 49f
8:42 16 20 mph 1019.9mb 51f 49f
8:36 16 18 mph 1019.7mb 51f 50f
8:30 18 21 mph 1019.5mb 51f 50f
8:24 18 22 mph 1019.3mb 51f 50f
8:18 18 22 mph 1019.3mb - -
8:12 20 21 mph 1019.2mb 51f 51f
8:06 17 20 mph 1019.2mb 51f 52f
8:00 15 17 mph 1019.2mb 51f 52f
7:54 14 15 mph 1019.2mb 51f 52f
7:48 13 15 mph 1019.2mb - -
7:42 14 15 mph 1019.2mb 51f 52f
7:36 13 14 mph 1019.1mb 51f 53f
7:30 11 13 mph 1019mb 51f 53f
7:24 11 13 mph 1019mb 51f 53f
7:18 11 13 mph 1018.9mb - -
7:12 11 14 mph 1018.8mb 51f 54f
7:06 11 14 mph 1018.4mb 51f 54f
7:00 14 16 mph 1018.2mb 51f 54f
6:54 14 16 mph 1018.1mb 51f 54f
6:48 13 16 mph 1018.2mb - -
6:42 16 18 mph 1018.2mb 50f 54f
6:36 15 17 mph 1017.9mb 50f 54f
6:30 15 17 mph 1018mb 50f 55f
6:24 14 16 mph 1018.1mb 50f 55f
6:18 14 16 mph 1018.3mb - -
6:12 13 15 mph 1018.3mb 50f 55f
6:06 13 14 mph 1018.3mb 50f 55f
6:00 10 11 mph 1018.3mb 50f 56f
5:54 13 14 mph 1018.3mb 49f 56f
5:48 13 14 mph 1018.4mb - -
5:42 14
mph
1018.5mb 50f 56f
5:36 13 16 mph 1018.5mb 50f 56f
5:30 14 15 mph 1018.6mb 50f 56f
5:24 13 14 mph 1018.6mb 50f 56f
5:18 11 14 mph 1018.5mb 50f 57f
5:12 14 15 mph 1018.4mb 51f 57f
5:06 11 14 mph 1018.2mb 51f 57f
5:00 9 10 mph 1018.2mb 51f 58f
4:54 9 10 mph 1018.2mb 51f 58f
4:48 6 8 mph 1018.3mb 51f 57f
4:42 7
mph
1018.3mb 51f 57f
4:36 6 7 mph 1018.2mb 51f 57f
4:30 1 2 mph 1018.2mb 51f 58f
4:24  -  2 mph 1018.1mb 51f 58f
4:18 1 3 mph 1018.1mb 51f 57f
4:12 3 5 mph 1017.9mb 51f 57f
4:06 3 5 mph 1018.1mb 51f 57f
4:00 2 3 mph 1018.1mb 51f 58f
3:54 2 5 mph 1018.3mb 51f 57f
3:48 5
mph
1018.1mb 50f 58f
3:42 3
mph
1018.2mb 50f 58f
3:36 2
mph
1018.3mb 50f 58f
3:30 2
mph
1018.3mb 50f 59f
3:24  -  mph 1018.4mb 51f 61f
3:18  -  1 mph 1018.5mb 51f 61f
3:12  -  1 mph 1018.5mb 51f 58f
3:06 1 3 mph 1018.5mb 51f 58f
3:00 2 3 mph 1018.4mb 51f 57f
2:54 2 3 mph 1018.5mb 51f 57f
2:48 3
mph
1018.6mb 51f 56f
2:42 3 6 mph 1018.6mb 51f 57f
2:36 2 3 mph 1018.7mb 51f 57f
2:30 2
mph
1018.7mb 51f 58f
2:24 3
mph
1018.6mb 51f 58f
2:18 2 3 mph 1018.7mb 50f 57f
2:12 2
mph
1018.6mb 50f 57f
2:06 2 3 mph 1018.6mb 50f 57f
2:00 3
mph
1018.6mb 50f 57f
1:54 3
mph
1018.6mb 50f 56f
1:48 1 2 mph 1018.7mb 50f 57f
1:42 1
mph
1018.7mb 50f 56f
1:36 2
mph
1018.8mb 50f 56f
1:30 1 2 mph 1018.8mb 50f 55f
1:24 2
mph
1018.9mb 50f 55f
1:18 2
mph
1019mb 50f 54f
1:12 2 5 mph 1019.1mb 50f 54f
1:06 3 5 mph 1019.2mb 50f 54f
1:00 3 5 mph 1019.1mb 50f 53f
12:54 5 6 mph 1019.1mb 50f 53f
12:48 5 9 mph - - -
12:42 8 9 mph 1019.1mb 50f 53f
12:36 7 8 mph 1019.2mb 50f 53f
12:30 7 8 mph 1019mb 50f 52f
12:24 6
mph
1019.2mb 50f 52f
12:18 6 7 mph 1019.3mb 50f 52f
12:12 5 6 mph 1019.5mb 50f 52f
12:06 5 6 mph 1019.4mb 50f 51f
12:00 5
mph
1019.5mb 50f 51f
11:54 5
mph
1019.5mb 50f 51f
11:48 5 6 mph 1019.6mb 50f 51f
11:42 5 6 mph 1019.7mb 50f 51f
11:36 5 6 mph 1019.8mb 50f 50f
11:30 5 6 mph 1019.9mb 50f 50f
11:24 5
mph
1020.1mb 50f 50f
11:18 5 6 mph 1020.3mb 50f 50f
11:12 5 6 mph 1020.3mb 50f 50f
11:06 5
mph
1020.3mb 50f 49f
11:00 5
mph
1020.2mb 50f 49f
10:54 5 6 mph 1020.1mb 50f 49f
10:48 6 7 mph - - -
10:42 6 7 mph 1020.2mb 50f 49f
10:36 6
mph
1020.3mb 50f 49f
10:30 6 7 mph 1020.4mb 50f 49f
10:24 6
mph
1020.5mb 50f 49f
10:18 5 6 mph 1020.6mb 50f 49f
10:12 5 6 mph 1020.7mb 50f 49f
10:06 5
mph
1020.7mb 49f 49f
10:00 5 6 mph 1020.8mb 49f 49f
9:54 3 5 mph 1020.9mb 49f 49f
9:48 3
mph
1020.8mb 49f 49f
9:42 3 5 mph 1020.8mb 49f 49f
9:36 3 5 mph 1020.7mb 49f 48f
9:30 3 5 mph 1020.5mb 49f 48f
9:24 3 6 mph 1020.6mb 49f 48f
9:18 5
mph
- - -